EW2441 Weather Reports


time (UTC)temp
F
wind
direction
speed
knots
gust
knots
rain 1hr
in
rain 24hr
in
rain mn
in
humidity
%
barometer
mb
20260506111505 45 308 1.7 3.5 0.00 1.62 0.56 94 1008.5
20260506104505 46 336 0.0 1.7 0.01 1.62 0.56 94 1007.3
20260506101504 45 357 0.0 1.7 0.05 1.62 0.56 94 1006.7
20260506100005 45 309 0.0 0.9 0.07 1.62 0.56 94 1007.4
20260506094505 45 280 0.0 2.6 0.06 1.61 0.55 94 1008.0
20260506093005 45 332 0.0 1.7 0.06 1.59 0.53 94 1007.8
20260506091504 45 345 0.0 1.7 0.07 1.57 0.51 94 1007.8
20260506090005 45 315 0.0 2.6 0.09 1.55 0.49 94 1007.3
20260506084505 45 334 0.9 3.5 0.13 1.55 0.49 94 1007.3
20260506083005 45 343 1.7 5.2 0.15 1.53 0.47 93 1007.5
20260506071505 46 313 0.9 5.2 0.09 1.33 0.27 93 1007.1
20260506044505 48 317 0.0 3.5 0.06 1.10 0.04 94 1007.9
20260506043006 48 320 0.9 3.5 0.08 1.10 0.04 94 1008.1
20260506041504 49 322 0.9 5.2 0.08 1.08 0.02 94 1008.3
20260506034504 49 328 0.9 2.6 0.11 1.04 1.04 94 1008.5
20260506033005 49 240 0.9 2.6 0.16 1.02 1.02 94 1008.9
20260506031505 49 264 0.0 0.9 0.23 1.00 1.00 94 1009.0
20260506030005 49 241 0.9 1.7 0.25 0.98 0.98 94 1009.1
20260506024505 49 273 0.9 2.6 0.25 0.93 0.93 94 1008.5
20260506023005 49 6 0.9 1.7 0.24 0.86 0.86 94 1008.3
20260506021504 49 332 0.9 2.6 0.22 0.76 0.76 94 1008.3
20260506020005 49 343 0.0 1.7 0.24 0.73 0.73 94 1008.1
20260506014504 49 239 0.0 0.9 0.20 0.68 0.68 94 1008.2
20260506013005 49 341 0.0 1.7 0.14 0.62 0.62 94 1008.1
20260506011504 49 343 0.0 1.7 0.06 0.54 0.54 93 1007.9
20260506010005 49 8 0.0 0.9 0.03 0.49 0.49 93 1007.7
20260506004504 49 2 0.9 1.7 0.08 0.48 0.48 93 1007.8
20260506003006 49 352 0.9 3.5 0.12 0.48 0.48 93 1007.8
20260506001504 50 330 0.0 2.6 0.24 0.48 0.48 93 1007.6
20260506000005 50 326 0.0 1.7 0.30 0.46 0.46 92 1007.9
20260505234505 50 296 0.9 2.6 0.25 0.40 0.40 92 1008.1
20260505230005 52 325 1.7 4.3 0.02 0.16 0.16 92 1007.5
20260505224504 53 336 0.9 5.2 0.01 0.15 0.15 91 1007.5
20260505223004 54 340 1.7 6.1 0.00 0.14 0.14 90 1007.6
20260505214504 58 278 0.0 1.7 0.08 0.14 0.14 91 1007.4
20260505211504 59 267 0.9 2.6 0.05 0.06 0.06 89 1007.4
20260505210006 60 289 0.9 3.5 0.05 0.06 0.06 86 1007.2
20260505203005 62 300 1.7 7.0 0.00 0.01 0.01 78 1007.1
20260505201504 63 302 0.9 3.5 0.00 0.01 0.01 76 1007.0
20260505200004 64 298 0.0 1.7 0.00 0.01 0.01 74 1007.0
20260505194504 63 227 0.9 3.5 0.00 0.01 0.01 76 1007.1
20260505193004 63 266 0.9 1.7 0.00 0.01 0.01 76 1007.1
20260505191503 63 243 0.9 3.5 0.00 0.01 0.01 75 1007.5
20260505190005 64 248 1.7 7.0 0.00 0.01 0.01 70 1007.7
20260505184504 65 244 3.5 10.4 0.00 0.01 0.01 64 1007.7
20260505183006 66 270 1.7 7.0 0.00 0.01 0.01 64 1007.7
20260505181504 66 264 1.7 9.6 0.00 0.01 0.01 62 1007.6
20260505180005 66 253 2.6 5.2 0.00 0.01 0.01 61 1007.4
20260505174504 67 250 3.5 11.3 0.00 0.01 0.01 59 1007.4
20260505173004 68 275 3.5 9.6 0.00 0.01 0.01 59 1007.2
20260505171505 68 258 4.3 10.4 0.00 0.01 0.01 58 1007.1
20260505170005 68 252 3.5 13.0 0.00 0.01 0.01 57 1007.1
20260505163005 69 246 3.5 10.4 0.00 0.01 0.01 57 1006.9
20260505161504 71 224 5.2 13.0 0.00 0.01 0.01 55 1006.8
20260505153004 68 239 4.3 13.9 0.00 0.01 0.01 59 1006.5
20260505123004 59 232 0.9 5.2 0.00 0.00 0.00 80 1006.0
20260505121504 60 285 0.9 2.6 0.00 0.00 0.00 78 1006.0
20260505120005 61 189 1.7 7.0 0.00 0.00 0.00 74 1005.5
20260505114504 62 209 2.6 9.6 0.00 0.00 0.00 70 1005.8
20260505113005 63 226 2.6 8.7 0.00 0.00 0.00 67 1005.3